Wetterdaten: Sonntag, 21.04.2013
Datum Zeit Temperatur Luftfeuchte Luftdruck Regen Wind Richtung Richtung Taupunkt Windchill Windben
21.04.2013 00:00 5,9 C 97 % 1018,7 hPa 0,0 l/m 2,3 km/h (1 Bft) N-NW 337 5,5 C 6,0 C 3,2 km/h (1 Bft)
21.04.2013 00:05 5,9 C 97 % 1018,6 hPa 0,0 l/m 2,6 km/h (1 Bft) N-NW 337 5,5 C 6,0 C 3,2 km/h (1 Bft)
21.04.2013 00:10 5,9 C 97 % 1018,6 hPa 0,0 l/m 3,1 km/h (1 Bft) N-NW 337 5,5 C 6,0 C 5,0 km/h (1 Bft)
21.04.2013 00:15 5,9 C 97 % 1018,6 hPa 0,0 l/m 3,4 km/h (1 Bft) N 360 5,5 C 5,9 C 9,0 km/h (2 Bft)
21.04.2013 00:20 5,9 C 97 % 1018,6 hPa 0,0 l/m 4,3 km/h (1 Bft) NO 45 5,5 C 5,4 C 7,4 km/h (2 Bft)
21.04.2013 00:25 5,9 C 97 % 1018,6 hPa 0,0 l/m 4,7 km/h (1 Bft) N-NW 337 5,5 C 5,3 C 7,1 km/h (2 Bft)
21.04.2013 00:30 5,9 C 97 % 1018,6 hPa 0,0 l/m 4,0 km/h (1 Bft) N-NW 337 5,5 C 5,6 C 3,1 km/h (1 Bft)
21.04.2013 00:35 5,9 C 97 % 1018,6 hPa 0,0 l/m 3,2 km/h (1 Bft) SW 225 5,5 C 6,0 C 1,6 km/h (1 Bft)
21.04.2013 00:40 5,9 C 97 % 1018,6 hPa 0,0 l/m 2,7 km/h (1 Bft) N 360 5,5 C 6,0 C 3,9 km/h (1 Bft)
21.04.2013 00:45 5,9 C 97 % 1018,4 hPa 0,0 l/m 3,4 km/h (1 Bft) N-NW 337 5,5 C 5,9 C 4,8 km/h (1 Bft)
21.04.2013 00:50 5,9 C 97 % 1018,4 hPa 0,0 l/m 3,7 km/h (1 Bft) W-NW 292 5,5 C 5,8 C 1,6 km/h (1 Bft)
21.04.2013 00:55 5,9 C 97 % 1018,4 hPa 0,0 l/m 2,6 km/h (1 Bft) W 270 5,5 C 6,0 C 0,0 km/h (0 Bft)
21.04.2013 01:00 5,9 C 97 % 1018,4 hPa 0,0 l/m 1,1 km/h (1 Bft) N-NW 337 5,5 C 6,0 C 3,1 km/h (1 Bft)
21.04.2013 01:05 5,9 C 97 % 1018,6 hPa 0,0 l/m 0,6 km/h (0 Bft) O-SO 112 5,5 C 6,0 C 0,0 km/h (0 Bft)
21.04.2013 01:10 5,9 C 97 % 1018,6 hPa 0,0 l/m 0,3 km/h (0 Bft) S 180 5,5 C 6,0 C 0,0 km/h (0 Bft)
21.04.2013 01:15 5,8 C 97 % 1018,6 hPa 0,0 l/m 0,5 km/h (0 Bft) NO 45 5,4 C 6,0 C 3,4 km/h (1 Bft)
21.04.2013 01:20 5,8 C 97 % 1018,6 hPa 0,0 l/m 1,0 km/h (0 Bft) SO 135 5,4 C 5,9 C 0,0 km/h (0 Bft)
21.04.2013 01:25 5,8 C 97 % 1018,4 hPa 0,0 l/m 1,0 km/h (0 Bft) N 360 5,4 C 5,9 C 2,9 km/h (1 Bft)
21.04.2013 01:30 5,8 C 97 % 1018,4 hPa 0,0 l/m 0,5 km/h (0 Bft) NO 45 5,4 C 5,9 C 0,0 km/h (0 Bft)
21.04.2013 01:35 5,8 C 97 % 1018,4 hPa 0,0 l/m 0,5 km/h (0 Bft) W-NW 292 5,4 C 5,9 C 0,0 km/h (0 Bft)
21.04.2013 01:40 5,8 C 97 % 1018,4 hPa 0,0 l/m 0,0 km/h (0 Bft) O-SO 112 5,4 C 5,9 C 0,0 km/h (0 Bft)
21.04.2013 01:45 5,8 C 97 % 1018,2 hPa 0,0 l/m 0,0 km/h (0 Bft) N 360 5,4 C 5,9 C 0,0 km/h (0 Bft)
21.04.2013 01:50 5,8 C 97 % 1018,2 hPa 0,0 l/m 1,0 km/h (0 Bft) N 360 5,4 C 5,9 C 2,6 km/h (1 Bft)
21.04.2013 01:55 5,8 C 97 % 1018,2 hPa 0,0 l/m 1,1 km/h (1 Bft) W 270 5,4 C 5,9 C 0,0 km/h (0 Bft)
21.04.2013 02:00 5,8 C 97 % 1018,2 hPa 0,0 l/m 1,0 km/h (0 Bft) N 360 5,4 C 5,9 C 1,9 km/h (1 Bft)
21.04.2013 02:05 5,8 C 97 % 1018,2 hPa 0,0 l/m 0,8 km/h (0 Bft) W-NW 292 5,4 C 5,9 C 1,8 km/h (1 Bft)
21.04.2013 02:10 5,8 C 97 % 1018,2 hPa 0,0 l/m 0,6 km/h (0 Bft) NW 315 5,4 C 5,9 C 1,9 km/h (1 Bft)
21.04.2013 02:15 5,8 C 97 % 1018,2 hPa 0,0 l/m 0,5 km/h (0 Bft) W-NW 292 5,4 C 5,9 C 0,0 km/h (0 Bft)
21.04.2013 02:20 5,8 C 97 % 1018,2 hPa 0,0 l/m 0,2 km/h (0 Bft) N 360 5,4 C 5,9 C 0,0 km/h (0 Bft)
21.04.2013 02:25 5,7 C 97 % 1018,1 hPa 0,0 l/m 0,2 km/h (0 Bft) N-NO 22 5,3 C 5,9 C 2,4 km/h (1 Bft)
21.04.2013 02:30 5,7 C 97 % 1018,1 hPa 0,0 l/m 0,6 km/h (0 Bft) N 360 5,3 C 5,9 C 0,0 km/h (0 Bft)
21.04.2013 02:35 5,7 C 97 % 1018,1 hPa 0,0 l/m 1,0 km/h (0 Bft) NO 45 5,3 C 5,9 C 1,8 km/h (1 Bft)
21.04.2013 02:40 5,7 C 97 % 1018,1 hPa 0,0 l/m 0,5 km/h (0 Bft) W-NW 292 5,3 C 5,8 C 0,0 km/h (0 Bft)
21.04.2013 02:45 5,7 C 97 % 1017,7 hPa 0,0 l/m 0,3 km/h (0 Bft) N-NW 337 5,3 C 5,8 C 2,7 km/h (1 Bft)
21.04.2013 02:50 5,7 C 97 % 1017,7 hPa 0,0 l/m 0,6 km/h (0 Bft) N 360 5,3 C 5,8 C 0,0 km/h (0 Bft)
21.04.2013 02:55 5,7 C 97 % 1017,7 hPa 0,0 l/m 1,0 km/h (0 Bft) W-NW 292 5,3 C 5,8 C 2,1 km/h (1 Bft)
21.04.2013 03:00 5,7 C 97 % 1017,7 hPa 0,0 l/m 1,3 km/h (1 Bft) N-NW 337 5,3 C 5,8 C 0,0 km/h (0 Bft)
21.04.2013 03:05 5,7 C 97 % 1017,4 hPa 0,0 l/m 1,1 km/h (1 Bft) NO 45 5,3 C 5,8 C 0,0 km/h (0 Bft)
21.04.2013 03:10 5,7 C 97 % 1017,4 hPa 0,0 l/m 0,2 km/h (0 Bft) O-NO 67 5,3 C 5,8 C 0,0 km/h (0 Bft)
21.04.2013 03:15 5,7 C 97 % 1017,4 hPa 0,0 l/m 0,0 km/h (0 Bft) O-SO 112 5,3 C 5,8 C 0,0 km/h (0 Bft)
21.04.2013 03:20 5,6 C 97 % 1017,4 hPa 0,0 l/m 0,2 km/h (0 Bft) SO 135 5,2 C 5,8 C 0,0 km/h (0 Bft)
21.04.2013 03:25 5,6 C 97 % 1017,4 hPa 0,0 l/m 0,2 km/h (0 Bft) N-NW 337 5,2 C 5,8 C 0,0 km/h (0 Bft)
21.04.2013 03:30 5,6 C 97 % 1017,4 hPa 0,0 l/m 0,0 km/h (0 Bft) N 360 5,2 C 5,8 C 0,0 km/h (0 Bft)
21.04.2013 03:35 5,6 C 97 % 1017,4 hPa 0,0 l/m 0,0 km/h (0 Bft) NO 45 5,2 C 5,8 C 0,0 km/h (0 Bft)
21.04.2013 03:40 5,6 C 97 % 1017,4 hPa 0,0 l/m 0,0 km/h (0 Bft) N 360 5,2 C 5,8 C 0,0 km/h (0 Bft)
21.04.2013 03:45 5,6 C 97 % 1017,1 hPa 0,0 l/m 0,0 km/h (0 Bft) O-NO 67 5,2 C 5,7 C 0,0 km/h (0 Bft)
21.04.2013 03:50 5,6 C 97 % 1017,1 hPa 0,0 l/m 0,0 km/h (0 Bft) NO 45 5,2 C 5,7 C 0,0 km/h (0 Bft)
21.04.2013 03:55 5,6 C 97 % 1017,1 hPa 0,0 l/m 0,0 km/h (0 Bft) N 360 5,2 C 5,7 C 0,0 km/h (0 Bft)
21.04.2013 04:00 5,6 C 97 % 1017,1 hPa 0,0 l/m 0,0 km/h (0 Bft) O-NO 67 5,2 C 5,7 C 0,0 km/h (0 Bft)
21.04.2013 04:05 5,6 C 97 % 1017,1 hPa 0,0 l/m 0,0 km/h (0 Bft) N-NO 22 5,2 C 5,8 C 0,0 km/h (0 Bft)
21.04.2013 04:10 5,6 C 97 % 1017,1 hPa 0,0 l/m 0,0 km/h (0 Bft) N 360 5,2 C 5,8 C 0,0 km/h (0 Bft)
21.04.2013 04:15 5,6 C 97 % 1017,1 hPa 0,0 l/m 0,0 km/h (0 Bft) O 90 5,2 C 5,8 C 0,0 km/h (0 Bft)
21.04.2013 04:20 5,6 C 97 % 1017,1 hPa 0,0 l/m 0,0 km/h (0 Bft) NO 45 5,2 C 5,8 C 0,0 km/h (0 Bft)
21.04.2013 04:25 5,6 C 97 % 1017,4 hPa 0,0 l/m 0,0 km/h (0 Bft) NO 45 5,2 C 5,8 C 0,0 km/h (0 Bft)
21.04.2013 04:30 5,6 C 97 % 1017,4 hPa 0,0 l/m 0,0 km/h (0 Bft) N 360 5,2 C 5,8 C 0,0 km/h (0 Bft)
21.04.2013 04:35 5,6 C 97 % 1017,4 hPa 0,0 l/m 0,2 km/h (0 Bft) N-NO 22 5,2 C 5,8 C 0,0 km/h (0 Bft)
21.04.2013 04:40 5,6 C 97 % 1017,4 hPa 0,0 l/m 0,2 km/h (0 Bft) N-NO 22 5,2 C 5,8 C 0,0 km/h (0 Bft)
21.04.2013 04:45 5,6 C 97 % 1016,9 hPa 0,0 l/m 0,2 km/h (0 Bft) N 360 5,2 C 5,8 C 2,4 km/h (1 Bft)
21.04.2013 04:50 5,6 C 97 % 1016,9 hPa 0,0 l/m 0,2 km/h (0 Bft) N-NO 22 5,2 C 5,8 C 0,0 km/h (0 Bft)
21.04.2013 04:55 5,6 C 97 % 1016,9 hPa 0,0 l/m 0,2 km/h (0 Bft) N 360 5,2 C 5,8 C 0,0 km/h (0 Bft)
21.04.2013 05:00 5,6 C 97 % 1016,9 hPa 0,0 l/m 0,0 km/h (0 Bft) N-NO 22 5,2 C 5,8 C 0,0 km/h (0 Bft)
21.04.2013 05:05 5,5 C 97 % 1016,9 hPa 0,0 l/m 0,2 km/h (0 Bft) NO 45 5,1 C 5,8 C 0,0 km/h (0 Bft)
21.04.2013 05:10 5,4 C 97 % 1016,9 hPa 0,0 l/m 0,2 km/h (0 Bft) N-NO 22 5,0 C 5,7 C 0,0 km/h (0 Bft)
21.04.2013 05:15 5,3 C 97 % 1016,9 hPa 0,0 l/m 0,3 km/h (0 Bft) O-NO 67 4,9 C 5,6 C 1,8 km/h (1 Bft)
21.04.2013 05:20 5,3 C 97 % 1016,9 hPa 0,0 l/m 0,5 km/h (0 Bft) O-NO 67 4,9 C 5,5 C 0,0 km/h (0 Bft)
21.04.2013 05:25 5,2 C 97 % 1016,8 hPa 0,0 l/m 0,3 km/h (0 Bft) O 90 4,8 C 5,5 C 0,0 km/h (0 Bft)
21.04.2013 05:30 5,2 C 97 % 1016,8 hPa 0,0 l/m 0,2 km/h (0 Bft) O-SO 112 4,8 C 5,4 C 0,0 km/h (0 Bft)
21.04.2013 05:35 5,2 C 97 % 1016,8 hPa 0,0 l/m 0,3 km/h (0 Bft) O 90 4,8 C 5,4 C 0,0 km/h (0 Bft)
21.04.2013 05:40 5,2 C 97 % 1016,8 hPa 0,0 l/m 0,2 km/h (0 Bft) S-SO 157 4,8 C 5,4 C 0,0 km/h (0 Bft)
21.04.2013 05:45 5,1 C 97 % 1016,9 hPa 0,0 l/m 0,0 km/h (0 Bft) NO 45 4,7 C 5,4 C 0,0 km/h (0 Bft)
21.04.2013 05:50 5,1 C 97 % 1016,9 hPa 0,0 l/m 0,0 km/h (0 Bft) SO 135 4,7 C 5,3 C 0,0 km/h (0 Bft)
21.04.2013 05:55 5,1 C 97 % 1016,9 hPa 0,0 l/m 0,2 km/h (0 Bft) O 90 4,7 C 5,3 C 0,0 km/h (0 Bft)
21.04.2013 06:00 5,1 C 97 % 1016,9 hPa 0,0 l/m 0,2 km/h (0 Bft) W-NW 292 4,7 C 5,3 C 0,0 km/h (0 Bft)
21.04.2013 06:05 5,1 C 97 % 1016,9 hPa 0,0 l/m 0,0 km/h (0 Bft) O 90 4,7 C 5,3 C 0,0 km/h (0 Bft)
21.04.2013 06:10 5,1 C 97 % 1016,9 hPa 0,0 l/m 0,3 km/h (0 Bft) SO 135 4,7 C 5,3 C 2,4 km/h (1 Bft)
21.04.2013 06:15 5,1 C 97 % 1016,9 hPa 0,0 l/m 0,5 km/h (0 Bft) O 90 4,7 C 5,3 C 0,0 km/h (0 Bft)
21.04.2013 06:20 5,1 C 97 % 1016,9 hPa 0,0 l/m 0,2 km/h (0 Bft) S-SO 157 4,7 C 5,2 C 0,0 km/h (0 Bft)
21.04.2013 06:25 5,1 C 97 % 1017,4 hPa 0,0 l/m 0,0 km/h (0 Bft) O 90 4,7 C 5,2 C 0,0 km/h (0 Bft)
21.04.2013 06:30 5,1 C 97 % 1017,4 hPa 0,0 l/m 0,8 km/h (0 Bft) NO 45 4,7 C 5,3 C 0,0 km/h (0 Bft)
21.04.2013 06:35 5,1 C 97 % 1017,4 hPa 0,0 l/m 0,8 km/h (0 Bft) O-SO 112 4,7 C 5,3 C 0,0 km/h (0 Bft)
21.04.2013 06:40 5,1 C 97 % 1017,4 hPa 0,0 l/m 0,0 km/h (0 Bft) O 90 4,7 C 5,3 C 0,0 km/h (0 Bft)
21.04.2013 06:45 5,1 C 97 % 1017,5 hPa 0,0 l/m 0,3 km/h (0 Bft) O 90 4,7 C 5,3 C 4,2 km/h (1 Bft)
21.04.2013 06:50 5,1 C 97 % 1017,5 hPa 0,0 l/m 1,0 km/h (0 Bft) O 90 4,7 C 5,3 C 0,0 km/h (0 Bft)
21.04.2013 06:55 5,1 C 97 % 1017,5 hPa 0,0 l/m 1,0 km/h (0 Bft) O 90 4,7 C 5,4 C 0,0 km/h (0 Bft)
21.04.2013 07:00 5,1 C 97 % 1017,5 hPa 0,0 l/m 0,0 km/h (0 Bft) O-NO 67 4,7 C 5,4 C 0,0 km/h (0 Bft)
21.04.2013 07:05 5,2 C 97 % 1018,0 hPa 0,0 l/m 0,0 km/h (0 Bft) S-SW 202 4,8 C 5,4 C 0,0 km/h (0 Bft)
21.04.2013 07:10 5,1 C 97 % 1018,0 hPa 0,0 l/m 0,3 km/h (0 Bft) O-SO 112 4,7 C 5,4 C 2,9 km/h (1 Bft)
21.04.2013 07:15 5,0 C 97 % 1018,0 hPa 0,0 l/m 1,0 km/h (0 Bft) O-SO 112 4,6 C 5,4 C 1,9 km/h (1 Bft)
21.04.2013 07:20 5,0 C 97 % 1018,0 hPa 0,0 l/m 1,4 km/h (1 Bft) S-SO 157 4,6 C 5,4 C 0,0 km/h (0 Bft)
21.04.2013 07:25 5,0 C 97 % 1018,2 hPa 0,0 l/m 1,0 km/h (0 Bft) SO 135 4,6 C 5,4 C 0,0 km/h (0 Bft)
21.04.2013 07:30 5,1 C 97 % 1018,2 hPa 0,0 l/m 0,2 km/h (0 Bft) O-NO 67 4,7 C 5,4 C 0,0 km/h (0 Bft)
21.04.2013 07:35 5,1 C 97 % 1018,2 hPa 0,0 l/m 0,3 km/h (0 Bft) O-NO 67 4,7 C 5,4 C 2,1 km/h (1 Bft)
21.04.2013 07:40 5,2 C 97 % 1018,2 hPa 0,0 l/m 0,5 km/h (0 Bft) S 180 4,8 C 5,5 C 3,1 km/h (1 Bft)
21.04.2013 07:45 5,1 C 97 % 1017,9 hPa 0,0 l/m 0,8 km/h (0 Bft) S 180 4,7 C 5,5 C 1,6 km/h (1 Bft)
21.04.2013 07:50 5,1 C 97 % 1017,9 hPa 0,0 l/m 1,6 km/h (1 Bft) SO 135 4,7 C 5,5 C 0,0 km/h (0 Bft)
21.04.2013 07:55 5,1 C 97 % 1017,9 hPa 0,0 l/m 1,9 km/h (1 Bft) O-SO 112 4,7 C 5,6 C 4,2 km/h (1 Bft)
21.04.2013 08:00 5,1 C 97 % 1017,9 hPa 0,0 l/m 2,4 km/h (1 Bft) S 180 4,7 C 5,6 C 2,9 km/h (1 Bft)
21.04.2013 08:05 5,1 C 97 % 1018,4 hPa 0,0 l/m 2,6 km/h (1 Bft) O-SO 112 4,7 C 5,6 C 3,4 km/h (1 Bft)
21.04.2013 08:10 5,2 C 97 % 1018,4 hPa 0,0 l/m 1,8 km/h (1 Bft) O-SO 112 4,8 C 5,7 C 0,0 km/h (0 Bft)
21.04.2013 08:15 5,3 C 97 % 1018,4 hPa 0,0 l/m 1,3 km/h (1 Bft) SO 135 4,9 C 5,8 C 0,0 km/h (0 Bft)
21.04.2013 08:20 5,4 C 97 % 1018,4 hPa 0,0 l/m 1,0 km/h (0 Bft) O 90 5,0 C 5,8 C 0,0 km/h (0 Bft)
21.04.2013 08:25 5,5 C 97 % 1018,0 hPa 0,0 l/m 1,0 km/h (0 Bft) O-SO 112 5,1 C 5,9 C 2,9 km/h (1 Bft)
21.04.2013 08:30 5,6 C 97 % 1018,0 hPa 0,0 l/m 0,5 km/h (0 Bft) NO 45 5,2 C 6,1 C 0,0 km/h (0 Bft)
21.04.2013 08:35 5,7 C 97 % 1018,0 hPa 0,0 l/m 0,3 km/h (0 Bft) O-SO 112 5,3 C 6,3 C 0,0 km/h (0 Bft)
21.04.2013 08:40 5,9 C 97 % 1018,0 hPa 0,0 l/m 0,8 km/h (0 Bft) O 90 5,5 C 6,4 C 0,0 km/h (0 Bft)
21.04.2013 08:45 5,9 C 97 % 1018,1 hPa 0,0 l/m 1,6 km/h (1 Bft) O 90 5,5 C 6,5 C 5,3 km/h (1 Bft)
21.04.2013 08:50 6,0 C 96 % 1018,1 hPa 0,0 l/m 1,0 km/h (0 Bft) S 180 5,4 C 6,7 C 0,0 km/h (0 Bft)
21.04.2013 08:55 6,0 C 96 % 1018,1 hPa 0,0 l/m 1,0 km/h (0 Bft) S 180 5,4 C 6,8 C 2,7 km/h (1 Bft)
21.04.2013 09:00 6,1 C 96 % 1018,1 hPa 0,0 l/m 1,4 km/h (1 Bft) S 180 5,5 C 6,9 C 1,6 km/h (1 Bft)
21.04.2013 09:05 6,2 C 96 % 1018,1 hPa 0,0 l/m 1,3 km/h (1 Bft) S 180 5,6 C 6,9 C 0,0 km/h (0 Bft)
21.04.2013 09:10 6,3 C 96 % 1018,1 hPa 0,0 l/m 1,0 km/h (0 Bft) O-SO 112 5,7 C 7,0 C 3,5 km/h (1 Bft)
21.04.2013 09:15 6,4 C 96 % 1018,1 hPa 0,0 l/m 1,0 km/h (0 Bft) O 90 5,8 C 7,3 C 2,6 km/h (1 Bft)
21.04.2013 09:20 6,5 C 96 % 1018,1 hPa 0,0 l/m 1,3 km/h (1 Bft) O-SO 112 5,9 C 7,6 C 1,8 km/h (1 Bft)
21.04.2013 09:25 6,7 C 96 % 1018,1 hPa 0,0 l/m 1,1 km/h (1 Bft) N-NO 22 6,1 C 7,9 C 0,0 km/h (0 Bft)
21.04.2013 09:30 6,8 C 96 % 1018,1 hPa 0,0 l/m 0,8 km/h (0 Bft) S-SO 157 6,2 C 8,3 C 2,6 km/h (1 Bft)
21.04.2013 09:35 6,7 C 96 % 1018,1 hPa 0,0 l/m 0,8 km/h (0 Bft) O 90 6,1 C 8,4 C 3,9 km/h (1 Bft)
21.04.2013 09:40 6,7 C 96 % 1018,1 hPa 0,0 l/m 0,8 km/h (0 Bft) SW 225 6,1 C 8,5 C 0,0 km/h (0 Bft)
21.04.2013 09:45 6,9 C 96 % 1018,0 hPa 0,0 l/m 0,5 km/h (0 Bft) S-SO 157 6,3 C 8,6 C 0,0 km/h (0 Bft)
21.04.2013 09:50 6,9 C 96 % 1018,0 hPa 0,0 l/m 0,3 km/h (0 Bft) S 180 6,3 C 8,6 C 3,2 km/h (1 Bft)
21.04.2013 09:55 6,7 C 96 % 1018,0 hPa 0,0 l/m 1,3 km/h (1 Bft) S 180 6,1 C 8,4 C 4,3 km/h (1 Bft)
21.04.2013 10:00 6,9 C 96 % 1018,0 hPa 0,0 l/m 1,6 km/h (1 Bft) O-SO 112 6,3 C 8,2 C 2,9 km/h (1 Bft)
21.04.2013 10:05 6,9 C 96 % 1017,9 hPa 0,0 l/m 1,8 km/h (1 Bft) SO 135 6,3 C 8,1 C 4,7 km/h (1 Bft)
21.04.2013 10:10 6,9 C 96 % 1017,9 hPa 0,0 l/m 2,4 km/h (1 Bft) S-SW 202 6,3 C 8,1 C 5,3 km/h (1 Bft)
21.04.2013 10:15 6,9 C 96 % 1017,9 hPa 0,0 l/m 2,7 km/h (1 Bft) S 180 6,3 C 8,1 C 4,0 km/h (1 Bft)
21.04.2013 10:20 7,0 C 96 % 1017,9 hPa 0,0 l/m 3,1 km/h (1 Bft) W 270 6,4 C 8,0 C 4,8 km/h (1 Bft)
21.04.2013 10:25 7,0 C 96 % 1018,5 hPa 0,0 l/m 3,2 km/h (1 Bft) S-SW 202 6,4 C 8,0 C 3,7 km/h (1 Bft)
21.04.2013 10:30 7,2 C 96 % 1018,5 hPa 0,0 l/m 3,7 km/h (1 Bft) S-SW 202 6,6 C 8,0 C 4,8 km/h (1 Bft)
21.04.2013 10:35 7,1 C 96 % 1018,5 hPa 0,0 l/m 4,7 km/h (1 Bft) S 180 6,5 C 7,7 C 10,5 km/h (2 Bft)
21.04.2013 10:40 7,4 C 96 % 1018,5 hPa 0,0 l/m 4,7 km/h (1 Bft) S 180 6,8 C 7,8 C 1,8 km/h (1 Bft)
21.04.2013 10:45 7,4 C 96 % 1018,4 hPa 0,0 l/m 4,0 km/h (1 Bft) S-SW 202 6,8 C 8,3 C 4,8 km/h (1 Bft)
21.04.2013 10:50 7,4 C 96 % 1018,4 hPa 0,0 l/m 3,9 km/h (1 Bft) W-NW 292 6,8 C 8,3 C 4,5 km/h (1 Bft)
21.04.2013 10:55 7,4 C 95 % 1018,4 hPa 0,0 l/m 4,7 km/h (1 Bft) S 180 6,7 C 8,0 C 7,1 km/h (2 Bft)
21.04.2013 11:00 7,4 C 95 % 1018,4 hPa 0,0 l/m 5,1 km/h (1 Bft) SO 135 6,7 C 7,7 C 5,1 km/h (1 Bft)
21.04.2013 11:05 7,5 C 95 % 1018,6 hPa 0,0 l/m 5,1 km/h (1 Bft) S-SO 157 6,8 C 7,9 C 5,0 km/h (1 Bft)
21.04.2013 11:10 7,6 C 95 % 1018,6 hPa 0,0 l/m 4,2 km/h (1 Bft) S-SW 202 6,9 C 8,4 C 4,5 km/h (1 Bft)
21.04.2013 11:15 7,6 C 95 % 1018,6 hPa 0,0 l/m 4,3 km/h (1 Bft) W-SW 247 6,9 C 8,4 C 6,1 km/h (2 Bft)
21.04.2013 11:20 7,4 C 95 % 1018,6 hPa 0,0 l/m 5,5 km/h (1 Bft) S-SO 157 6,7 C 7,9 C 4,7 km/h (1 Bft)
21.04.2013 11:25 7,4 C 94 % 1018,4 hPa 0,0 l/m 5,0 km/h (1 Bft) S-SW 202 6,5 C 7,9 C 2,9 km/h (1 Bft)
21.04.2013 11:30 7,6 C 94 % 1018,4 hPa 0,0 l/m 4,3 km/h (1 Bft) S-SO 157 6,7 C 8,3 C 11,4 km/h (2 Bft)
21.04.2013 11:35 7,4 C 94 % 1018,4 hPa 0,0 l/m 5,5 km/h (1 Bft) S 180 6,5 C 7,8 C 10,8 km/h (2 Bft)
21.04.2013 11:40 7,4 C 93 % 1018,4 hPa 0,0 l/m 6,4 km/h (2 Bft) S-SO 157 6,3 C 7,3 C 10,0 km/h (2 Bft)
21.04.2013 11:45 7,4 C 93 % 1018,4 hPa 0,0 l/m 6,1 km/h (2 Bft) S 180 6,3 C 7,4 C 3,5 km/h (1 Bft)
21.04.2013 11:50 7,4 C 93 % 1018,4 hPa 0,0 l/m 4,3 km/h (1 Bft) O 90 6,3 C 7,9 C 3,9 km/h (1 Bft)
21.04.2013 11:55 7,3 C 93 % 1018,4 hPa 0,0 l/m 3,2 km/h (1 Bft) SW 225 6,2 C 8,2 C 5,6 km/h (1 Bft)
21.04.2013 12:00 7,3 C 92 % 1018,4 hPa 0,0 l/m 5,1 km/h (1 Bft) S 180 6,1 C 7,6 C 6,9 km/h (2 Bft)
21.04.2013 12:05 7,3 C 92 % 1018,4 hPa 0,0 l/m 5,6 km/h (1 Bft) S 180 6,1 C 7,3 C 5,1 km/h (1 Bft)
21.04.2013 12:10 7,3 C 92 % 1018,4 hPa 0,0 l/m 4,5 km/h (1 Bft) S-SW 202 6,1 C 7,8 C 3,5 km/h (1 Bft)
21.04.2013 12:15 7,3 C 92 % 1018,4 hPa 0,0 l/m 4,0 km/h (1 Bft) S 180 6,1 C 7,9 C 5,5 km/h (1 Bft)
21.04.2013 12:20 7,4 C 92 % 1018,4 hPa 0,0 l/m 3,9 km/h (1 Bft) S 180 6,2 C 8,2 C 3,4 km/h (1 Bft)
21.04.2013 12:25 7,6 C 92 % 1018,4 hPa 0,0 l/m 4,3 km/h (1 Bft) S 180 6,4 C 7,9 C 1,9 km/h (1 Bft)
21.04.2013 12:30 7,9 C 92 % 1018,4 hPa 0,0 l/m 4,8 km/h (1 Bft) S-SW 202 6,7 C 8,1 C 7,1 km/h (2 Bft)
21.04.2013 12:35 7,9 C 92 % 1018,4 hPa 0,0 l/m 4,8 km/h (1 Bft) S-SW 202 6,7 C 8,4 C 5,6 km/h (1 Bft)
21.04.2013 12:40 8,0 C 91 % 1018,4 hPa 0,0 l/m 5,5 km/h (1 Bft) SW 225 6,6 C 8,4 C 8,4 km/h (2 Bft)
21.04.2013 12:45 8,1 C 91 % 1018,4 hPa 0,0 l/m 5,3 km/h (1 Bft) S 180 6,7 C 8,6 C 5,5 km/h (1 Bft)
21.04.2013 12:50 8,0 C 90 % 1018,4 hPa 0,0 l/m 4,8 km/h (1 Bft) S-SO 157 6,5 C 8,8 C 5,1 km/h (1 Bft)
21.04.2013 12:55 8,0 C 90 % 1018,4 hPa 0,0 l/m 5,0 km/h (1 Bft) S 180 6,5 C 8,7 C 7,6 km/h (2 Bft)
21.04.2013 13:00 8,1 C 91 % 1018,4 hPa 0,0 l/m 4,7 km/h (1 Bft) SW 225 6,7 C 8,8 C 4,8 km/h (1 Bft)
21.04.2013 13:05 8,4 C 91 % 1018,4 hPa 0,0 l/m 4,0 km/h (1 Bft) W-SW 247 7,0 C 9,2 C 2,1 km/h (1 Bft)
21.04.2013 13:10 8,3 C 91 % 1018,4 hPa 0,0 l/m 4,0 km/h (1 Bft) S 180 6,9 C 9,3 C 5,5 km/h (1 Bft)
21.04.2013 13:15 8,2 C 91 % 1018,4 hPa 0,0 l/m 4,3 km/h (1 Bft) S-SW 202 6,8 C 9,1 C 8,2 km/h (2 Bft)
21.04.2013 13:20 8,6 C 91 % 1018,4 hPa 0,0 l/m 4,2 km/h (1 Bft) S-SW 202 7,2 C 9,3 C 4,3 km/h (1 Bft)
21.04.2013 13:25 8,5 C 91 % 1018,3 hPa 0,0 l/m 3,7 km/h (1 Bft) W-SW 247 7,1 C 9,7 C 5,6 km/h (1 Bft)
21.04.2013 13:30 8,7 C 90 % 1018,3 hPa 0,0 l/m 3,2 km/h (1 Bft) W-SW 247 7,2 C 9,8 C 3,9 km/h (1 Bft)
21.04.2013 13:35 8,4 C 90 % 1018,3 hPa 0,0 l/m 3,9 km/h (1 Bft) S 180 6,9 C 9,7 C 3,7 km/h (1 Bft)
21.04.2013 13:40 8,2 C 90 % 1018,3 hPa 0,0 l/m 4,5 km/h (1 Bft) SW 225 6,7 C 9,2 C 5,8 km/h (2 Bft)
21.04.2013 13:45 8,3 C 90 % 1018,3 hPa 0,0 l/m 4,5 km/h (1 Bft) W-SW 247 6,8 C 9,0 C 2,7 km/h (1 Bft)
21.04.2013 13:50 8,3 C 90 % 1018,3 hPa 0,0 l/m 4,5 km/h (1 Bft) S 180 6,8 C 9,0 C 4,5 km/h (1 Bft)
21.04.2013 13:55 8,3 C 90 % 1018,3 hPa 0,0 l/m 4,2 km/h (1 Bft) S-SW 202 6,8 C 9,0 C 2,1 km/h (1 Bft)
21.04.2013 14:00 8,5 C 90 % 1018,3 hPa 0,0 l/m 4,7 km/h (1 Bft) S-SO 157 7,0 C 8,9 C 4,8 km/h (1 Bft)
21.04.2013 14:05 8,5 C 90 % 1018,1 hPa 0,0 l/m 4,2 km/h (1 Bft) S 180 7,0 C 9,2 C 5,8 km/h (2 Bft)
21.04.2013 14:10 8,4 C 90 % 1018,1 hPa 0,0 l/m 5,1 km/h (1 Bft) S 180 6,9 C 8,8 C 6,4 km/h (2 Bft)
21.04.2013 14:15 8,5 C 90 % 1018,1 hPa 0,0 l/m 5,6 km/h (1 Bft) W-SW 247 7,0 C 8,7 C 6,4 km/h (2 Bft)
21.04.2013 14:20 8,9 C 90 % 1018,1 hPa 0,0 l/m 4,8 km/h (1 Bft) W-SW 247 7,4 C 9,1 C 5,3 km/h (1 Bft)
21.04.2013 14:25 9,0 C 90 % 1018,1 hPa 0,0 l/m 3,9 km/h (1 Bft) S-SW 202 7,4 C 9,7 C 5,6 km/h (1 Bft)
21.04.2013 14:30 9,1 C 90 % 1018,1 hPa 0,0 l/m 3,2 km/h (1 Bft) W-SW 247 7,5 C 9,9 C 5,0 km/h (1 Bft)
21.04.2013 14:35 8,9 C 90 % 1018,1 hPa 0,0 l/m 4,0 km/h (1 Bft) S 180 7,4 C 9,9 C 7,1 km/h (2 Bft)
21.04.2013 14:40 8,7 C 90 % 1018,1 hPa 0,0 l/m 4,8 km/h (1 Bft) SW 225 7,2 C 9,5 C 6,6 km/h (2 Bft)
21.04.2013 14:45 8,6 C 89 % 1018,1 hPa 0,0 l/m 5,0 km/h (1 Bft) W 270 6,9 C 9,2 C 2,9 km/h (1 Bft)
21.04.2013 14:50 8,6 C 90 % 1018,1 hPa 0,0 l/m 4,3 km/h (1 Bft) W-SW 247 7,1 C 9,4 C 2,4 km/h (1 Bft)
21.04.2013 14:55 8,6 C 90 % 1018,1 hPa 0,0 l/m 4,2 km/h (1 Bft) W-SW 247 7,1 C 9,3 C 4,5 km/h (1 Bft)
21.04.2013 15:00 8,4 C 89 % 1018,1 hPa 0,0 l/m 5,0 km/h (1 Bft) SW 225 6,7 C 8,7 C 4,3 km/h (1 Bft)
21.04.2013 15:05 8,3 C 89 % 1018,1 hPa 0,0 l/m 5,1 km/h (1 Bft) S 180 6,6 C 8,7 C 4,5 km/h (1 Bft)
21.04.2013 15:10 8,6 C 89 % 1018,1 hPa 0,0 l/m 4,7 km/h (1 Bft) SW 225 6,9 C 8,8 C 5,5 km/h (1 Bft)
21.04.2013 15:15 8,8 C 90 % 1018,1 hPa 0,0 l/m 4,3 km/h (1 Bft) W-SW 247 7,3 C 9,2 C 6,1 km/h (2 Bft)
21.04.2013 15:20 8,9 C 89 % 1018,1 hPa 0,0 l/m 4,8 km/h (1 Bft) S 180 7,2 C 9,1 C 6,0 km/h (2 Bft)
21.04.2013 15:25 8,8 C 89 % 1017,9 hPa 0,0 l/m 5,0 km/h (1 Bft) S 180 7,1 C 9,2 C 5,3 km/h (1 Bft)
21.04.2013 15:30 8,6 C 89 % 1017,9 hPa 0,0 l/m 4,2 km/h (1 Bft) SW 225 6,9 C 9,3 C 8,2 km/h (2 Bft)
21.04.2013 15:35 8,6 C 89 % 1017,9 hPa 0,0 l/m 4,7 km/h (1 Bft) S-SO 157 6,9 C 9,0 C 5,0 km/h (1 Bft)
21.04.2013 15:40 8,6 C 89 % 1017,9 hPa 0,0 l/m 5,1 km/h (1 Bft) W-SW 247 6,9 C 8,7 C 4,5 km/h (1 Bft)
21.04.2013 15:45 8,8 C 89 % 1017,7 hPa 0,0 l/m 4,5 km/h (1 Bft) S 180 7,1 C 9,0 C 3,5 km/h (1 Bft)
21.04.2013 15:50 8,8 C 89 % 1017,7 hPa 0,0 l/m 3,7 km/h (1 Bft) S 180 7,1 C 9,4 C 4,3 km/h (1 Bft)
21.04.2013 15:55 8,9 C 90 % 1017,7 hPa 0,0 l/m 3,4 km/h (1 Bft) S-SW 202 7,4 C 9,5 C 3,7 km/h (1 Bft)
21.04.2013 16:00 8,7 C 89 % 1017,7 hPa 0,0 l/m 4,0 km/h (1 Bft) S 180 7,0 C 9,5 C 5,1 km/h (1 Bft)
21.04.2013 16:05 8,6 C 89 % 1017,6 hPa 0,0 l/m 4,3 km/h (1 Bft) S-SW 202 6,9 C 9,3 C 5,1 km/h (1 Bft)
21.04.2013 16:10 8,3 C 89 % 1017,6 hPa 0,0 l/m 4,7 km/h (1 Bft) S-SW 202 6,6 C 8,8 C 6,0 km/h (2 Bft)
21.04.2013 16:15 8,3 C 89 % 1017,6 hPa 0,0 l/m 4,3 km/h (1 Bft) S 180 6,6 C 8,8 C 5,8 km/h (2 Bft)
21.04.2013 16:20 8,3 C 89 % 1017,6 hPa 0,0 l/m 3,5 km/h (1 Bft) W-SW 247 6,6 C 9,0 C 4,5 km/h (1 Bft)
21.04.2013 16:25 8,6 C 90 % 1017,7 hPa 0,0 l/m 3,9 km/h (1 Bft) SW 225 7,1 C 9,0 C 5,1 km/h (1 Bft)
21.04.2013 16:30 8,7 C 90 % 1017,7 hPa 0,0 l/m 4,3 km/h (1 Bft) S 180 7,2 C 8,9 C 5,5 km/h (1 Bft)
21.04.2013 16:35 8,7 C 90 % 1017,7 hPa 0,0 l/m 4,5 km/h (1 Bft) S-SW 202 7,2 C 8,9 C 5,1 km/h (1 Bft)
21.04.2013 16:40 8,7 C 90 % 1017,7 hPa 0,0 l/m 4,0 km/h (1 Bft) S 180 7,2 C 9,1 C 4,5 km/h (1 Bft)
21.04.2013 16:45 8,5 C 90 % 1017,7 hPa 0,0 l/m 3,9 km/h (1 Bft) S-SW 202 7,0 C 9,1 C 7,2 km/h (2 Bft)
21.04.2013 16:50 8,4 C 90 % 1017,7 hPa 0,0 l/m 4,2 km/h (1 Bft) SW 225 6,9 C 8,9 C 4,8 km/h (1 Bft)
21.04.2013 16:55 8,3 C 89 % 1017,7 hPa 0,0 l/m 4,2 km/h (1 Bft) S 180 6,6 C 8,8 C 5,3 km/h (1 Bft)
21.04.2013 17:00 8,3 C 89 % 1017,7 hPa 0,0 l/m 4,5 km/h (1 Bft) SW 225 6,6 C 8,5 C 4,2 km/h (1 Bft)
21.04.2013 17:05 8,4 C 90 % 1017,4 hPa 0,0 l/m 4,2 km/h (1 Bft) W 270 6,9 C 8,6 C 4,5 km/h (1 Bft)
21.04.2013 17:10 8,4 C 90 % 1017,4 hPa 0,0 l/m 3,4 km/h (1 Bft) S 180 6,9 C 8,7 C 2,9 km/h (1 Bft)
21.04.2013 17:15 8,4 C 90 % 1017,4 hPa 0,0 l/m 3,2 km/h (1 Bft) W-SW 247 6,9 C 8,7 C 4,5 km/h (1 Bft)
21.04.2013 17:20 8,1 C 90 % 1017,4 hPa 0,0 l/m 4,0 km/h (1 Bft) W-SW 247 6,6 C 8,5 C 8,0 km/h (2 Bft)
21.04.2013 17:25 7,9 C 90 % 1017,4 hPa 0,0 l/m 4,8 km/h (1 Bft) W-SW 247 6,4 C 8,0 C 10,0 km/h (2 Bft)
21.04.2013 17:30 8,0 C 90 % 1017,4 hPa 0,0 l/m 5,0 km/h (1 Bft) S-SW 202 6,5 C 7,7 C 5,8 km/h (2 Bft)
21.04.2013 17:35 8,0 C 90 % 1017,4 hPa 0,0 l/m 4,5 km/h (1 Bft) W-SW 247 6,5 C 7,9 C 4,3 km/h (1 Bft)
21.04.2013 17:40 8,0 C 91 % 1017,4 hPa 0,0 l/m 4,2 km/h (1 Bft) S-SW 202 6,6 C 8,0 C 3,5 km/h (1 Bft)
21.04.2013 17:45 7,9 C 91 % 1017,4 hPa 0,0 l/m 3,7 km/h (1 Bft) SW 225 6,5 C 8,2 C 4,2 km/h (1 Bft)
21.04.2013 17:50 7,8 C 91 % 1017,4 hPa 0,0 l/m 4,0 km/h (1 Bft) S 180 6,4 C 7,8 C 4,5 km/h (1 Bft)
21.04.2013 17:55 7,7 C 91 % 1017,4 hPa 0,0 l/m 4,5 km/h (1 Bft) S-SW 202 6,3 C 7,7 C 4,7 km/h (1 Bft)
21.04.2013 18:00 7,7 C 91 % 1017,4 hPa 0,0 l/m 4,0 km/h (1 Bft) SO 135 6,3 C 7,7 C 9,0 km/h (2 Bft)
21.04.2013 18:05 7,7 C 91 % 1017,4 hPa 0,0 l/m 4,3 km/h (1 Bft) S 180 6,3 C 7,6 C 4,8 km/h (1 Bft)
21.04.2013 18:10 7,7 C 91 % 1017,4 hPa 0,0 l/m 3,9 km/h (1 Bft) S-SW 202 6,3 C 7,8 C 2,4 km/h (1 Bft)
21.04.2013 18:15 7,7 C 91 % 1017,4 hPa 0,0 l/m 3,2 km/h (1 Bft) W-SW 247 6,3 C 8,0 C 3,4 km/h (1 Bft)
21.04.2013 18:20 7,7 C 91 % 1017,4 hPa 0,0 l/m 3,1 km/h (1 Bft) S 180 6,3 C 7,9 C 1,9 km/h (1 Bft)
21.04.2013 18:25 7,7 C 91 % 1017,2 hPa 0,0 l/m 2,7 km/h (1 Bft) S-SW 202 6,3 C 7,9 C 2,7 km/h (1 Bft)
21.04.2013 18:30 7,6 C 91 % 1017,2 hPa 0,0 l/m 3,1 km/h (1 Bft) S 180 6,2 C 7,8 C 6,3 km/h (2 Bft)
21.04.2013 18:35 7,6 C 91 % 1017,2 hPa 0,0 l/m 3,4 km/h (1 Bft) S-SW 202 6,2 C 7,7 C 0,0 km/h (0 Bft)
21.04.2013 18:40 7,5 C 92 % 1017,2 hPa 0,0 l/m 3,1 km/h (1 Bft) S 180 6,3 C 7,6 C 5,3 km/h (1 Bft)
21.04.2013 18:45 7,5 C 92 % 1017,2 hPa 0,0 l/m 3,2 km/h (1 Bft) S 180 6,3 C 7,6 C 3,2 km/h (1 Bft)
21.04.2013 18:50 7,5 C 92 % 1017,2 hPa 0,0 l/m 3,7 km/h (1 Bft) SW 225 6,3 C 7,4 C 4,3 km/h (1 Bft)
21.04.2013 18:55 7,5 C 92 % 1017,2 hPa 0,0 l/m 3,2 km/h (1 Bft) S 180 6,3 C 7,4 C 3,7 km/h (1 Bft)
21.04.2013 19:00 7,3 C 92 % 1017,2 hPa 0,0 l/m 3,5 km/h (1 Bft) S-SW 202 6,1 C 7,3 C 1,8 km/h (1 Bft)
21.04.2013 19:05 7,3 C 92 % 1017,2 hPa 0,0 l/m 3,4 km/h (1 Bft) S-SW 202 6,1 C 7,3 C 4,8 km/h (1 Bft)
21.04.2013 19:10 7,3 C 92 % 1017,2 hPa 0,0 l/m 2,9 km/h (1 Bft) N-NW 337 6,1 C 7,3 C 3,5 km/h (1 Bft)
21.04.2013 19:15 7,2 C 92 % 1017,2 hPa 0,0 l/m 3,2 km/h (1 Bft) S-SO 157 6,0 C 7,3 C 2,9 km/h (1 Bft)
21.04.2013 19:20 7,2 C 92 % 1017,2 hPa 0,0 l/m 2,7 km/h (1 Bft) S-SO 157 6,0 C 7,2 C 5,0 km/h (1 Bft)
21.04.2013 19:25 7,2 C 92 % 1017,2 hPa 0,0 l/m 3,2 km/h (1 Bft) S-SW 202 6,0 C 7,2 C 3,4 km/h (1 Bft)
21.04.2013 19:30 7,1 C 92 % 1017,2 hPa 0,0 l/m 3,9 km/h (1 Bft) S-SO 157 5,9 C 6,9 C 3,1 km/h (1 Bft)
21.04.2013 19:35 7,1 C 92 % 1017,2 hPa 0,0 l/m 3,4 km/h (1 Bft) S-SW 202 5,9 C 7,1 C 2,7 km/h (1 Bft)
21.04.2013 19:40 7,1 C 92 % 1017,2 hPa 0,0 l/m 2,7 km/h (1 Bft) S-SW 202 5,9 C 7,1 C 3,1 km/h (1 Bft)
21.04.2013 19:45 7,1 C 92 % 1017,5 hPa 0,0 l/m 2,9 km/h (1 Bft) S 180 5,9 C 7,1 C 4,7 km/h (1 Bft)
21.04.2013 19:50 7,0 C 92 % 1017,5 hPa 0,0 l/m 3,2 km/h (1 Bft) S 180 5,8 C 7,1 C 3,2 km/h (1 Bft)
21.04.2013 19:55 7,0 C 92 % 1017,5 hPa 0,0 l/m 2,9 km/h (1 Bft) S-SO 157 5,8 C 7,1 C 2,4 km/h (1 Bft)
21.04.2013 20:00 7,0 C 92 % 1017,5 hPa 0,0 l/m 1,9 km/h (1 Bft) S-SO 157 5,8 C 7,0 C 2,7 km/h (1 Bft)
21.04.2013 20:05 7,0 C 92 % 1017,0 hPa 0,0 l/m 2,4 km/h (1 Bft) S-SW 202 5,8 C 7,0 C 4,8 km/h (1 Bft)
21.04.2013 20:10 6,9 C 93 % 1017,0 hPa 0,0 l/m 3,4 km/h (1 Bft) S 180 5,8 C 7,0 C 4,5 km/h (1 Bft)
21.04.2013 20:15 6,9 C 93 % 1017,0 hPa 0,0 l/m 3,7 km/h (1 Bft) S-SO 157 5,8 C 6,8 C 5,8 km/h (2 Bft)
21.04.2013 20:20 6,9 C 93 % 1017,0 hPa 0,0 l/m 3,7 km/h (1 Bft) S 180 5,8 C 6,8 C 1,8 km/h (1 Bft)
21.04.2013 20:25 6,8 C 93 % 1017,2 hPa 0,0 l/m 3,2 km/h (1 Bft) S 180 5,7 C 6,9 C 2,9 km/h (1 Bft)
21.04.2013 20:30 6,8 C 93 % 1017,2 hPa 0,0 l/m 2,9 km/h (1 Bft) S 180 5,7 C 6,8 C 1,9 km/h (1 Bft)
21.04.2013 20:35 6,8 C 93 % 1017,2 hPa 0,0 l/m 2,3 km/h (1 Bft) S-SO 157 5,7 C 6,8 C 3,4 km/h (1 Bft)
21.04.2013 20:40 6,8 C 93 % 1017,2 hPa 0,0 l/m 2,4 km/h (1 Bft) S-SW 202 5,7 C 6,7 C 3,1 km/h (1 Bft)
21.04.2013 20:45 6,7 C 93 % 1017,2 hPa 0,0 l/m 2,7 km/h (1 Bft) S 180 5,6 C 6,7 C 3,4 km/h (1 Bft)
21.04.2013 20:50 6,7 C 93 % 1017,2 hPa 0,0 l/m 2,3 km/h (1 Bft) S-SO 157 5,6 C 6,6 C 3,1 km/h (1 Bft)
21.04.2013 20:55 6,7 C 93 % 1017,2 hPa 0,0 l/m 2,1 km/h (1 Bft) S 180 5,6 C 6,6 C 2,7 km/h (1 Bft)
21.04.2013 21:00 6,7 C 93 % 1017,2 hPa 0,0 l/m 1,8 km/h (1 Bft) S-SW 202 5,6 C 6,6 C 3,9 km/h (1 Bft)
21.04.2013 21:05 6,6 C 93 % 1017,2 hPa 0,0 l/m 1,6 km/h (1 Bft) S 180 5,6 C 6,6 C 0,0 km/h (0 Bft)
21.04.2013 21:10 6,6 C 93 % 1017,2 hPa 0,0 l/m 0,8 km/h (0 Bft) S 180 5,6 C 6,6 C 0,0 km/h (0 Bft)
21.04.2013 21:15 6,6 C 93 % 1017,2 hPa 0,0 l/m 0,8 km/h (0 Bft) S 180 5,6 C 6,6 C 2,1 km/h (1 Bft)
21.04.2013 21:20 6,6 C 93 % 1017,2 hPa 0,0 l/m 1,4 km/h (1 Bft) S-SO 157 5,6 C 6,6 C 1,6 km/h (1 Bft)
21.04.2013 21:25 6,6 C 93 % 1017,3 hPa 0,0 l/m 1,3 km/h (1 Bft) S-SO 157 5,6 C 6,6 C 2,6 km/h (1 Bft)
21.04.2013 21:30 6,6 C 93 % 1017,3 hPa 0,0 l/m 1,1 km/h (1 Bft) SO 135 5,6 C 6,6 C 2,9 km/h (1 Bft)
21.04.2013 21:35 6,6 C 93 % 1017,3 hPa 0,0 l/m 1,0 km/h (0 Bft) S 180 5,6 C 6,6 C 0,0 km/h (0 Bft)
21.04.2013 21:40 6,6 C 93 % 1017,3 hPa 0,0 l/m 1,3 km/h (1 Bft) S 180 5,6 C 6,6 C 2,7 km/h (1 Bft)
21.04.2013 21:45 6,6 C 93 % 1017,6 hPa 0,0 l/m 1,6 km/h (1 Bft) SO 135 5,6 C 6,6 C 2,9 km/h (1 Bft)
21.04.2013 21:50 6,6 C 93 % 1017,6 hPa 0,0 l/m 1,4 km/h (1 Bft) SO 135 5,6 C 6,6 C 3,5 km/h (1 Bft)
21.04.2013 21:55 6,6 C 93 % 1017,6 hPa 0,0 l/m 1,3 km/h (1 Bft) SO 135 5,6 C 6,6 C 2,6 km/h (1 Bft)
21.04.2013 22:00 6,6 C 93 % 1017,6 hPa 0,0 l/m 0,8 km/h (0 Bft) S-SO 157 5,6 C 6,6 C 2,4 km/h (1 Bft)
21.04.2013 22:05 6,6 C 93 % 1017,4 hPa 0,0 l/m 0,8 km/h (0 Bft) O-SO 112 5,6 C 6,6 C 2,9 km/h (1 Bft)
21.04.2013 22:10 6,6 C 93 % 1017,4 hPa 0,0 l/m 1,4 km/h (1 Bft) S 180 5,6 C 6,6 C 0,0 km/h (0 Bft)
21.04.2013 22:15 6,5 C 93 % 1017,4 hPa 0,0 l/m 1,4 km/h (1 Bft) S-SO 157 5,5 C 6,6 C 2,1 km/h (1 Bft)
21.04.2013 22:20 6,5 C 93 % 1017,4 hPa 0,0 l/m 1,1 km/h (1 Bft) O-SO 112 5,5 C 6,6 C 2,1 km/h (1 Bft)
21.04.2013 22:25 6,6 C 93 % 1017,4 hPa 0,0 l/m 1,0 km/h (0 Bft) O-SO 112 5,6 C 6,6 C 0,0 km/h (0 Bft)
21.04.2013 22:30 6,5 C 93 % 1017,4 hPa 0,0 l/m 0,8 km/h (0 Bft) S 180 5,5 C 6,6 C 3,1 km/h (1 Bft)
21.04.2013 22:35 6,5 C 93 % 1017,4 hPa 0,0 l/m 1,0 km/h (0 Bft) O 90 5,5 C 6,6 C 2,6 km/h (1 Bft)
21.04.2013 22:40 6,5 C 93 % 1017,4 hPa 0,0 l/m 1,1 km/h (1 Bft) S 180 5,5 C 6,6 C 3,1 km/h (1 Bft)
21.04.2013 22:45 6,5 C 93 % 1017,4 hPa 0,0 l/m 1,3 km/h (1 Bft) O-SO 112 5,5 C 6,6 C 1,9 km/h (1 Bft)
21.04.2013 22:50 6,5 C 93 % 1017,4 hPa 0,0 l/m 0,8 km/h (0 Bft) SO 135 5,5 C 6,6 C 0,0 km/h (0 Bft)
21.04.2013 22:55 6,5 C 93 % 1017,4 hPa 0,0 l/m 1,0 km/h (0 Bft) S-SO 157 5,5 C 6,6 C 1,9 km/h (1 Bft)
21.04.2013 23:00 6,5 C 93 % 1017,4 hPa 0,0 l/m 1,3 km/h (1 Bft) S 180 5,5 C 6,6 C 1,8 km/h (1 Bft)
21.04.2013 23:05 6,5 C 93 % 1017,5 hPa 0,0 l/m 1,4 km/h (1 Bft) O-SO 112 5,5 C 6,6 C 1,9 km/h (1 Bft)
21.04.2013 23:10 6,5 C 93 % 1017,5 hPa 0,0 l/m 1,4 km/h (1 Bft) S-SO 157 5,5 C 6,6 C 3,2 km/h (1 Bft)
21.04.2013 23:15 6,5 C 93 % 1017,5 hPa 0,0 l/m 1,3 km/h (1 Bft) SO 135 5,5 C 6,6 C 0,0 km/h (0 Bft)
21.04.2013 23:20 6,5 C 93 % 1017,5 hPa 0,0 l/m 1,0 km/h (0 Bft) SO 135 5,5 C 6,5 C 1,9 km/h (1 Bft)
21.04.2013 23:25 6,4 C 93 % 1017,4 hPa 0,0 l/m 0,6 km/h (0 Bft) O-SO 112 5,4 C 6,5 C 1,6 km/h (1 Bft)
21.04.2013 23:30 6,4 C 93 % 1017,4 hPa 0,0 l/m 1,1 km/h (1 Bft) SO 135 5,4 C 6,5 C 3,5 km/h (1 Bft)
21.04.2013 23:35 6,4 C 93 % 1017,4 hPa 0,0 l/m 1,8 km/h (1 Bft) SO 135 5,4 C 6,5 C 2,6 km/h (1 Bft)
21.04.2013 23:40 6,4 C 93 % 1017,4 hPa 0,0 l/m 2,3 km/h (1 Bft) O 90 5,4 C 6,5 C 1,9 km/h (1 Bft)
21.04.2013 23:45 6,4 C 93 % 1017,6 hPa 0,0 l/m 2,3 km/h (1 Bft) O-SO 112 5,4 C 6,5 C 3,2 km/h (1 Bft)
21.04.2013 23:50 6,4 C 92 % 1017,6 hPa 0,0 l/m 2,1 km/h (1 Bft) SO 135 5,2 C 6,5 C 1,9 km/h (1 Bft)
21.04.2013 23:55 6,4 C 92 % 1017,6 hPa 0,0 l/m 2,4 km/h (1 Bft) O-SO 112 5,2 C 6,5 C 3,5 km/h (1 Bft)
_ Min-Zeit 07:25 17:00 05:40 - 07:05 - - 07:25 06:25 23:15
Minimum _ 5,0 C 89 % 1016,8 hPa - 0,0 km/h (0 Bft) - - 4,6 C 5,2 C 0,0 km/h (0 Bft)
_ Max-Zeit 14:30 08:45 00:00 23:55 11:40 - - 14:30 14:35 11:30
Maximum _ 9,1 C 97 % 1018,7 hPa 0,0 l/m 6,4 km/h
S-SO (2 Bft)
- - 7,5 C 9,9 C 11,4 km/h
S-SO (2 Bft)
Durchschnitt _ 6,8 C 94 % 1017,8 hPa #0,0 l/m 2,3 km/h (1 Bft) S - 5,8 C 7,1 C 2,9 km/h (1 Bft)